Location: ???????
(55.4362°N, 38.1183°E)
Time: 18:36:13
(UTC+00:00)

Cosmos 2278 Rocket - Pass Details

Date: 27 October 2021
Orbit: 841 x 845 km, 71.0° (Epoch: 28 November)

Event Time Altitude Azimuth Distance (km) Brightness Sun altitude
Rises 17:01:30 0° 325° (NW) 3,419 6.1 -26.2°
Reaches altitude 10° 17:03:58 10° 324° (NW) 2,479 5.3 -26.5°
Maximum altitude 17:09:38 73° 241° (WSW) 886 2.3 -27.3°
Enters shadow 17:10:23 64° 189° (S) 938 2.3 -27.4°
